Regional Weather Roundup
Issued by NWS

Home | Current Version | Previous Version | Text Only | Print | Product List | Glossary On
Versions: 1 2 3 4 5 6 7 8 9 10 11 12 13 14 15 16 17 18 19 20 21 22 23 24 25 26 27 28 29 30 31 32 33 34 35 36 37 38 39 40 41 42 43 44 45 46 47 48 49 50
000
ASCA42 TJSJ 220711
RWRPR
PUERTO RICO/U.S. VIRGIN ISLANDS HOURLY WEATHER ROUNDUP
NATIONAL WEATHER SERVICE SAN JUAN PR
300 AM AST MON SEP 22 2014

PRZ001-004-220800-
PUERTO RICO

CITY           SKY/WX    TMP DP  RH WIND       PRES   REMARKS
SAN JUAN LMM   PTCLDY    82  77  83 NE9       29.95F HX  91
PONCE          PTCLDY    77  72  83 NE6       29.92F
AGUADILLA      CLEAR     75  73  94 E8        29.97F
$$

PRZ006-007-220800-
U.S. VIRGIN ISLANDS

CITY           SKY/WX    TMP DP  RH WIND       PRES   REMARKS
$$

HOURLY WEATHER ROUNDUP FOR THE NEWS MEDIA

CITY           SKY/WX    TMP DP  RH WIND       PRES   REMARKS
MIAMI          MOCLDY    77  72  84 CALM      29.99F
ORLANDO        MOCLDY    76  73  91 S3        30.00F
NEW YORK       CLOUDY    68  58  70 NW10      29.67R
NEWARK         PTCLDY    67  60  78 W6        29.68R
CHICAGO        PTCLDY    50  42  74 N9        30.17R
HARTFORD       CLOUDY    67  66  97 W9        29.56S
BOSTON         PTCLDY    69  67  93 SW12      29.53S
DALLAS         MOCLDY    79  68  69 NE8       30.11R
PHILADELPHIA   PTCLDY    70  58  65 W8        29.73R


USA.gov is the U.S. government's official web portal to all federal, state and local government web resources and services.